This is the latest recevied weather packets stored in our database for station/object GW4003. If no packets are shown the sender has not sent any weather packets the latest 10 day(s).
| Time | Temp. | Humidity | Pressure | Rain* | Wind** | Luminosity | Snow |
|---|---|---|---|---|---|---|---|
| 1788462520 | 30.56° C | 20% | 1016.8 hPa | 0 mm | - | - | - |
| 1788462216 | 30.56° C | 20% | 1017 hPa | 0 mm | - | - | - |
| 1788461912 | 30.56° C | 20% | 1017 hPa | 0 mm | - | - | - |
| 1788461609 | 30° C | 20% | 1017.1 hPa | 0 mm | - | - | - |
| 1788461305 | 30° C | 20% | 1017.2 hPa | 0 mm | - | - | - |
| 1788461001 | 30° C | 20% | 1017.3 hPa | 0 mm | - | - | - |
| 1788460697 | 30° C | 22% | 1017.4 hPa | 0 mm | - | - | - |
| 1788460393 | 30° C | 20% | 1017.4 hPa | 0 mm | - | - | - |
| 1788460090 | 30.56° C | 21% | 1017.5 hPa | 0 mm | - | - | - |
| 1788459786 | 30° C | 20% | 1017.6 hPa | 0 mm | - | - | - |
| 1788459481 | 29.44° C | 21% | 1017.8 hPa | 0 mm | - | - | - |
| 1788459177 | 30° C | 21% | 1017.8 hPa | 0 mm | - | - | - |
| 1788458873 | 30° C | 22% | 1017.9 hPa | 0 mm | - | - | - |
| 1788458570 | 29.44° C | 22% | 1017.9 hPa | 0 mm | - | - | - |
| 1788458266 | 29.44° C | 22% | 1018 hPa | 0 mm | - | - | - |
| 1788457962 | 29.44° C | 23% | 1018 hPa | 0 mm | - | - | - |
| 1788457659 | 28.89° C | 23% | 1018.1 hPa | 0 mm | - | - | - |
| 1788457355 | 28.89° C | 24% | 1018.1 hPa | 0 mm | - | - | - |
| 1788457052 | 28.89° C | 23% | 1018.2 hPa | 0 mm | - | - | - |
| 1788456748 | 29.44° C | 22% | 1018.2 hPa | 0 mm | - | - | - |
| 1788456444 | 28.89° C | 27% | 1018.2 hPa | 0 mm | - | - | - |
| 1788456140 | 28.33° C | 25% | 1018.2 hPa | 0 mm | - | - | - |
| 1788455837 | 28.33° C | 25% | 1018.3 hPa | 0 mm | - | - | - |
| 1788455533 | 28.33° C | 25% | 1018.2 hPa | 0 mm | - | - | - |
| 1788455230 | 28.33° C | 24% | 1018.2 hPa | 0 mm | - | - | - |
* Rain latest hour (hover to see other rain measurements)
** Current wind speed in m/s (hover to see current wind gust speed)